Find Starlink 3640

NORAD ID: 51988 Int'l Des: 2022-025 Owner: SPXS Country: US Constellation: starlink operational
LEOCIRCULAR

現在のビュー

3D地球を読み込み中...

About Starlink 3640

Starlink 3640 (NORAD 51988) is a starlink constellation satellite (v1.5) launched Mar 9, 2022 by SPXS of US. It operates in LEO, CIRCULAR orbit with a mass of 297.00 kg.

Starlink 3640について

説明を読み込み中...

次回通過

Passes for default location (London). Set your location on the main map for personalized predictions.

高度履歴

Loading altitude history...

軌道要素

1 51988U 22025AJ 26195.16668980 -.00022905 00000-0 -78351-3 0 9996
2 51988 53.1601 189.9308 0001673 77.2600 256.8343 15.29369344 5839
Epoch: Jul 14, 2026 • Age: 5 hours

現在のステータス

高度 484.2 km
遠地点 / 近地点 N/A
速度 7.62 km/s
衛星直下点 -21.78°S, 108.98°E
打ち上げ日 Mar 9, 2022
運用期間 4.3 years
タイプ internet

技術仕様

分類 Payload
質量 297.00 kg
乾燥質量 275.00 kg
総質量 297.00 kg
長さ 0.20 m
直径 2.80 m
スパン 9.00 m
形状 Box + pan
製造者 SPXS
バスタイプ Starlink
フェーズステータス In Orbit
所有者/国 SPXS/US

Most Searched